ARIANE 1 DEB, 25098

Orbit data source: Space-Track

ARIANE 1 DEB, 25098 is space debris in HEO originally from a launch on Mon, 24 Dec 1979 UTC launched from the French Guiana (FRGUI). Debris objects in space refer to the collection of defunct objects orbiting the Earth. Examples of debris include non-operational satellites, rocket bodies, and fragments generated from explosions, collisions, or faulty payload assembly.

Loading next visibility...
Identifier
25098, 1979-104D
Orbit
HEO
Last TLE update
2 days ago
Origin
Manufacturer
ESA
Mission
Spacecraft
Bus & Motor
Unknown
Mass
Unknown
Launch date (UTC)
1979-12-24 (46 years ago)
Launch vehicle
Unknown
Launch site
French Guiana (FRGUI)
Object type
Payload
Rocket body
Debris
Shape & HBR
Unknown
Radar Cross Section
Medium (>0.1 m² and <1 m²)

Expand to show TLE details & history

TLE from 2 days ago
0 ARIANE 1 DEB
1 25098U 79104D   25185.39279098  .00000048  00000-0  10544-3 0  9992
2 25098  17.5441 283.6920 5348971  76.2297 335.5933  4.79083329426983
Epoch: 2025-07-04T09:25Z
TLE epoch observation values (Epoch: 2025-07-04T09:25:37.14Z)
Latitude
0.00004°
Longitude
-140.33067°
Altitude
3,034.16 km
Speed
7.608 km/s
True Right ascension
18h 54m 52s
True Declination
0° 00' 00"
Sunlit
Object was in full shadow at epoch
Visualization orbit readout
Latitude
-14.02564°
Longitude
89.82977°
Altitude
13,997.348 km
Speed
3.509 km/s
Apparent Right ascension
09h 53m 30s
Apparent Declination
-20° 24' 07"
Sunlit
Object is in daylight
Visualization observer readout
Local Sidereal Time
20:22:23
Azimuth
308.356° NW
Elevation
-62.437°
Doppler factor
1
Orbital elements
Apogee altitude
16,442.686 km
Perigee altitude
537.005 km
Semi-major axis
14,867.983 km
Eccentricity
0.5349
Inclination
17.5441°
RAAN
283.692°
Arg. of periapsis
76.2297°
True anomaly
Unknown
Mean anomaly
335.5933°
Eccentric anomaly
Unknown
Mean motion
1.1972 °/min
Orbital period
300.7 mins
BSTAR
0.00010544
Loading maneuver chart data...
Loading SW <> Apogee altitude chart data...
Loading historical data...
Loading historical data...
Loading historical data...
Loading historical data...
Loading historical data...
Loading historical data...
Loading historical data...

ARIANE 1 DEB Visibility forecast

Observer location: undefined°, undefined°

Span
Click to sort rows by Start time (UTC) header in descending order
Start Az.
Max El. time (UTC)
Max El. Az.
Max El.
End time (UTC)
End Az.
24 mins2025-07-06 17:07:34.015Z202.86° SW2025-07-06 17:14:34.015Z171.267° S16.095°2025-07-06 17:31:34.015Z141.126° SSE
180 mins2025-07-06 22:52:34.015Z217.161° SW2025-07-07 00:10:34.015Z187.705° SSW16.487°2025-07-07 01:52:34.015Z153.682° SSE
|